Sumbawanga, Tanzania

4:51 AM EAT on February 25, 2017 (GMT +0300)
Sumbawanga

Weather History for HTSU - March, 2014

Change the Weather History Date:

Wednesday, March 26, 2014

  Actual Average Record
Temperature  
Mean Temperature 66 °F -  
Max Temperature 74 °F - - ()
Min Temperature 59 °F - - ()
Cooling Degree Days 2    
Growing Degree Days 16 (Base 50)    
Moisture  
Dew Point 59 °F    
Average Humidity 87    
Maximum Humidity 100    
Minimum Humidity 60    
Precipitation  
Precipitation 0.16 in - - ()
Sea Level Pressure  
Sea Level Pressure 30.12 in    
Wind  
Wind Speed 2 mph ()    
Max Wind Speed 14 mph    
Max Gust Speed -    
Visibility 9.3 miles    
Events Rain , Thunderstorm    
T = Trace of Precipitation, MM = Missing Value Source: Averaged Metar Reports

Daily Weather History Graph

Daily Weather History Graph

Search for Another Location

Airport or City:

Trip Planner

Search our weather history database for the weather conditions in past years. The results will help you decide how hot, cold, wet, or windy it might be!

Date:

Astronomy

Mar. 26, 2014 Rise Set
Actual Time 6:57 AM EAT 7:01 PM EAT
Civil Twilight 6:36 AM EAT 7:22 PM EAT
Nautical Twilight 6:11 AM EAT 7:46 PM EAT
Astronomical Twilight 5:47 AM EAT 8:10 PM EAT
Moon 2:39 AM EAT (3/26) 3:22 PM EAT (3/26)
Length of Visible Light 12h 45m
Length of Day
12h 04m
Waning Crescent, 25% of the Moon is Illuminated
Mar 26
Waning Crescent
Mar 30
New
Apr 7
First Quarter
Apr 15
Full
Apr 22
Last Quarter

Hourly Weather History & Observations

Time (EAT) Temp. Dew Point Humidity Pressure Visibility Wind Dir Wind Speed Gust Speed Precip Events Conditions
12:00 AM 60 °F 59 °F 95%  in 19 mi Calm Calm - -   Overcast
12:00 AM 60.8 °F 59.0 °F 94% 30.18 in 6.2 mi Calm Calm - N/A Thunderstorm Light Thunderstorm
1:00 AM 60.8 °F 59.0 °F 94% 30.18 in 6.2 mi Calm Calm - N/A   Overcast
2:00 AM 60.8 °F 59.0 °F 94% 30.18 in 6.2 mi Calm Calm - N/A   Mostly Cloudy
3:00 AM 60 °F 58 °F 92%  in 19 mi Calm Calm - -   Partly Cloudy
3:00 AM 59.0 °F 59.0 °F 100% 30.12 in 6.2 mi Calm Calm - N/A   Partly Cloudy
4:00 AM 60.8 °F 59.0 °F 94% 30.15 in 6.2 mi Calm Calm - N/A   Partly Cloudy
5:00 AM 59.0 °F 57.2 °F 94% 30.15 in 6.2 mi Calm Calm - N/A   Partly Cloudy
6:00 AM 60 °F 58 °F 92%  in 19 mi Calm Calm - -   Partly Cloudy
6:00 AM 60.8 °F 59.0 °F 94% 30.12 in 6.2 mi Calm Calm - N/A   Partly Cloudy
7:00 AM 60.8 °F 59.0 °F 94% 30.15 in 6.2 mi Calm Calm - N/A   Scattered Clouds
8:00 AM 60.8 °F 59.0 °F 94% 30.15 in 6.2 mi SE 5.8 mph - N/A   Scattered Clouds
9:00 AM 63 °F 59 °F 84%  in 19 mi South 4.6 mph - -   Partly Cloudy
9:00 AM 62.6 °F 59.0 °F 88% 30.15 in 6.2 mi South 4.6 mph - N/A   Scattered Clouds
10:00 AM 64.4 °F 59.0 °F 83% 30.15 in 6.2 mi South 5.8 mph - N/A   Mostly Cloudy
1:00 PM 71.6 °F 59.0 °F 64% 30.15 in 6.2 mi Calm Calm - N/A   Scattered Clouds
2:00 PM 71.6 °F 60.8 °F 69% 30.12 in 6.2 mi NNE 13.8 mph - N/A   Partly Cloudy
3:00 PM 70 °F 59 °F 60%  in 19 mi WNW 8.1 mph - -   Mostly Cloudy
3:00 PM 69.8 °F 59.0 °F 68% 30.09 in 6.2 mi WNW 8.1 mph - N/A   Partly Cloudy
4:00 PM 69.8 °F 59.0 °F 68% 30.09 in 6.2 mi West 4.6 mph - N/A   Scattered Clouds
5:00 PM 69.8 °F 59.0 °F 68% 30.09 in 6.2 mi West 4.6 mph - N/A   Light Drizzle
6:00 PM 65 °F 62 °F 86%  in 19 mi West 6.9 mph - - Thunderstorm Light Thunderstorm
6:00 PM 64.4 °F 62.6 °F 94% 30.09 in 6.2 mi West 6.9 mph - N/A   Light Drizzle
7:00 PM 62.6 °F 59.0 °F 88% 29.80 in 6.2 mi Calm Calm - N/A   Light Drizzle
8:00 PM 62.6 °F 60.8 °F 94% 30.09 in 6.2 mi Calm Calm - N/A   Overcast
9:00 PM 62 °F 60 °F 92%  in 19 mi Calm Calm - - Rain Light Drizzle
9:00 PM 62.6 °F 60.8 °F 94% 30.12 in 6.2 mi Calm Calm - N/A   Light Drizzle
10:00 PM 60.8 °F 60.8 °F 100% 30.12 in 6.2 mi NE 3.5 mph - N/A   Overcast
11:00 PM 60.8 °F 60.8 °F 100% 30.12 in 6.2 mi Calm Calm - N/A   Overcast